Location: Unspecified
(0.0000°N, 0.0000°E)
Time: 17:34:02
(UTC+00:00)

CZ-3B R/B - Visible Passes

Search period start: 13 May 2025 00:00
Search period end: 23 May 2025 00:00
Orbit: 140 x 9131 km, 54.9° (Epoch: 12 May)

Date Brightness Start Highest point End Pass type
(mag) Time Alt. Az. Time Alt. Az. Time Alt. Az.
13 May ? 05:13:56 10° SSW 06:19:03 59° ESE 06:53:56 10° NE visible
14 May ? 03:29:21 10° S 04:21:54 30° ESE 05:00:10 10° ENE visible
15 May ? 05:00:26 10° SSW 06:04:50 60° ESE 06:40:05 10° NE visible
15 May ? 20:01:41 10° WNW 20:02:49 21° W 20:02:49 21° W visible
16 May ? 03:09:37 10° S 04:00:28 29° ESE 04:38:50 10° ENE visible
17 May ? 04:32:24 10° SSW 05:34:56 56° ESE 06:11:20 10° NE visible
17 May ? 19:29:48 10° WNW 19:32:09 38° SW 19:33:40 28° S visible
18 May ? 02:36:12 10° S 03:21:58 24° SE 03:59:24 10° E visible
19 May ? 03:49:22 10° S 04:48:18 47° ESE 05:26:22 10° NE visible
19 May ? 18:42:57 10° NNW 18:44:56 77° ENE 18:49:59 10° SE visible
20 May ? 01:50:43 10° SSE 02:24:11 16° SE 02:55:33 10° E visible
20 May ? 05:01:42 10° SSW 06:05:50 75° ESE 06:40:05 10° NE visible
20 May ? 19:51:56 10° WSW 19:54:06 14° SSW 19:56:36 11° S visible
21 May ? 02:51:09 10° S 03:43:27 35° ESE 04:22:35 10° ENE visible
22 May ? 03:52:39 10° SSW 04:52:31 57° ESE 05:30:00 10° NE visible
22 May ? 18:38:14 10° WNW 18:40:15 42° SW 18:45:10 10° SSE visible
